Wetbulb
49.88 49.11 48.13 46.90 45.58 45.45 45.14 44.96 45.22 45.52 44.60 44.15 43.76 43.41 42.13 40.97 40.81 40.65 41.14 41.15 39.98 39.56 39.90 39.53 39.24 39.83 39.42 39.65 39.82 38.85 37.72 37.44 34.85 37.44 39.86 41.46 41.61 41.88 42.46 43.47 43.63 43.83 44.32
48.19 47.44 46.47 45.43 45.18 44.76 44.45 44.40 44.69 43.97 44.36 43.79 42.71 41.71 40.89 40.52 41.36 39.25 39.06 39.20 38.28 37.38 37.68 38.13 37.42 37.56 37.99 38.46 38.35 38.10 38.06 38.58 36.67 34.74 37.78 38.60 39.61 41.26 41.79 41.62 41.79 42.47 43.34
46.84 46.13 45.49 45.01 44.44 43.41 43.68 43.24 43.58 42.94 42.41 42.06 41.54 40.09 40.16 40.81 40.49 39.78 39.23 38.88 38.62 38.29 37.75 37.11 36.76 36.92 36.20 36.58 36.65 36.30 36.45 36.42 36.60 35.22 34.94 37.82 38.45 39.53 39.08 40.18 40.42 41.34 41.57
45.69 45.04 44.50 43.83 43.17 43.36 42.96 42.60 42.50 42.31 41.39 41.06 40.91 40.33 39.73 38.39 37.99 37.79 37.72 37.59 37.29 37.13 37.01 36.75 36.06 35.43 34.53 34.58 34.50 34.26 34.27 34.56 34.79 34.31 34.19 34.66 36.16 37.65 37.90 36.42 36.60 38.96 38.78
44.78 44.24 43.02 42.74 42.64 42.13 41.67 41.37 41.22 40.89 39.96 39.13 38.45 37.92 37.75 37.10 36.18 35.64 35.72 35.82 35.81 35.39 35.75 35.38 35.53 34.73 32.46 32.34 32.10 32.44 33.38 33.40 33.77 33.53 33.10 33.96 33.88 34.29 33.79 35.88 34.49 35.96 37.65
43.86 42.41 41.71 41.59 41.33 40.59 40.06 39.55 38.93 38.03 37.89 37.66 37.17 36.64 36.35 35.88 31.18 30.69 31.57 33.30 33.73 33.86 33.68 34.25 34.48 33.38 33.11 32.21 31.05 30.57 30.88 30.73 29.95 29.53 29.49 29.24 31.31 32.26 33.30 32.71 32.22 30.80 29.49
42.49 41.53 40.77 40.74 39.73 38.97 38.35 37.39 36.81 36.66 37.04 36.26 36.06 35.85 34.99 35.23 29.82 29.55 29.01 31.58 31.92 32.59 32.72 32.71 32.30 32.58 32.42 32.53 31.26 31.05 30.21 29.75 28.74 30.04 27.82 29.09 29.24 31.10 32.15 30.78 31.27 30.80 30.61
41.29 40.52 40.40 39.13 37.84 37.59 36.56 36.04 36.13 36.38 35.69 35.27 35.02 34.43 33.87 33.71 29.78 28.58 27.95 30.83 31.88 32.02 32.25 32.10 31.87 31.96 31.53 30.60 29.62 29.07 29.83 31.34 31.63 31.13 30.84 30.47 31.21 31.74 31.70 32.45 32.61 32.33 33.56
39.67 38.95 39.08 38.11 36.82 36.02 35.36 35.39 35.80 35.32 34.85 34.35 33.75 32.93 32.45 32.39 29.82 27.97 27.73 29.40 29.75 30.00 30.25 30.31 29.55 29.38 29.71 29.86 29.55 29.06 29.28 30.34 32.09 32.62 32.18 31.78 31.72 31.91 32.18 31.94 30.40 29.54 29.47
39.79 39.46 39.16 38.16 36.35 35.22 35.43 35.46 35.64 35.16 33.84 33.57 32.08 32.30 30.74 30.44 28.92 27.43 27.58 28.43 26.84 27.33 28.77 29.50 29.83 30.29 29.80 29.16 29.49 29.40 27.32 28.20 29.79 30.74 30.91 31.71 32.85 32.42 31.33 32.37 32.17 29.26 29.10
40.24 39.65 38.72 37.87 36.04 35.83 35.79 36.11 35.27 34.27 32.78 30.97 30.39 30.08 30.40 29.30 28.61 27.35 26.68 26.12 26.80 26.35 26.84 28.11 30.70 29.77 28.11 27.53 27.06 27.46 26.80 28.36 27.24 28.43 28.87 29.22 30.73 32.21 33.05 34.01 33.87 32.45 29.96
40.65 39.56 37.78 36.98 36.03 35.29 35.53 35.53 34.79 33.49 31.04 29.31 30.19 29.58 29.49 30.84 28.10 27.22 26.35 26.69 27.23 27.26 27.05 29.10 30.56 26.97 26.64 25.92 25.78 25.77 25.43 26.28 27.90 28.88 29.32 28.82 29.68 30.87 32.06 33.55 33.89 34.24 34.80
37.69 37.24 36.83 36.42 35.58 35.80 34.89 34.12 32.45 31.66 28.77 27.88 26.92 26.55 27.30 28.44 28.69 26.52 26.51 26.75 26.52 27.07 28.93 28.03 26.35 25.65 25.59 25.98 25.20 24.84 25.42 28.32 27.86 27.09 27.76 29.17 31.50 32.82 33.43 33.55 33.84 34.01 34.23
37.25 36.20 36.47 35.83 34.69 35.53 34.85 32.73 31.42 29.03 27.43 26.31 25.77 25.53 25.76 26.34 25.71 25.86 26.50 26.58 26.31 27.52 26.54 28.76 26.56 25.31 26.03 26.41 26.50 26.45 27.08 27.53 26.63 26.68 27.38 29.07 31.38 32.29 32.09 32.86 31.63 32.51 31.22
34.93 35.30 34.89 34.47 34.19 33.64 33.12 32.00 30.42 29.56 27.18 25.81 25.75 25.24 23.93 23.30 23.57 24.79 24.67 24.51 25.27 24.75 25.26 26.42 24.73 23.62 24.69 25.14 25.00 25.32 26.58 26.45 26.26 26.97 27.91 28.11 29.24 31.13 31.85 32.23 31.73 31.73 30.69
32.54 33.46 34.07 33.62 33.42 32.16 31.53 30.76 27.13 25.74 24.63 24.00 23.37 23.70 24.36 23.48 23.43 23.62 23.51 23.24 23.03 23.03 24.16 22.31 21.52 21.63 22.29 23.20 23.52 23.94 24.89 24.58 25.22 26.44 27.58 27.57 27.66 29.70 30.48 31.12 30.40 30.92 30.49
31.65 31.89 33.01 31.02 30.90 30.13 29.50 27.76 26.35 28.61 24.76 23.06 22.31 22.32 21.73 22.00 22.26 22.08 21.88 21.71 21.62 22.03 21.05 20.67 20.30 20.72 21.40 21.97 22.30 22.70 22.38 23.91 25.22 25.09 25.99 26.25 27.05 28.53 30.38 30.61 30.37 30.56 30.23
31.14 28.57 31.65 31.40 30.44 29.70 28.32 27.38 27.12 25.51 25.04 25.54 24.25 21.55 21.03 21.15 20.86 20.59 20.50 21.32 19.96 19.89 19.34 19.16 19.09 19.84 20.33 20.96 21.51 21.33 22.34 23.27 23.60 23.86 24.63 25.47 26.03 26.74 27.62 28.43 29.60 29.87 30.35
30.39 30.37 30.80 30.68 29.44 28.39 27.83 27.07 26.61 25.82 25.51 24.48 24.41 23.26 22.52 21.08 20.52 20.21 20.07 19.87 18.46 17.76 17.65 18.12 18.88 19.24 19.71 20.45 21.12 21.29 22.57 22.64 23.11 23.86 24.07 24.14 24.78 25.93 26.04 26.90 28.04 27.61 28.36
29.18 27.89 28.27 28.90 28.59 27.80 27.28 26.27 25.81 25.61 25.18 24.34 23.25 21.24 21.24 21.54 20.25 19.78 19.90 19.11 18.25 17.58 17.51 17.77 18.46 18.95 19.27 19.93 20.77 21.35 22.29 22.01 22.16 22.60 23.15 24.05 24.69 25.65 25.06 25.28 25.90 25.94 26.08
29.72 29.42 26.74 28.85 27.97 27.15 26.37 25.88 25.73 25.44 24.64 23.96 23.54 21.75 17.80 19.58 19.09 18.87 18.52 17.72 17.16 16.95 17.37 17.63 18.32 18.88 19.06 19.17 19.62 20.40 20.95 21.42 21.50 21.43 22.23 23.48 25.17 24.06 25.06 25.42 25.60 26.00 25.44
29.66 29.82 29.12 28.03 27.66 27.19 26.75 26.25 25.56 25.02 24.51 23.57 23.77 22.74 18.19 20.81 19.40 18.73 18.44 18.17 17.98 17.54 17.69 17.85 17.93 18.09 18.19 18.13 18.36 18.76 19.18 19.59 20.49 20.66 21.09 22.74 23.57 24.28 24.61 24.34 24.36 24.65 24.17
28.88 29.23 28.65 28.02 28.04 26.59 26.84 26.43 25.80 25.48 24.89 24.24 23.78 22.85 21.98 20.89 19.99 19.21 18.38 18.35 18.11 17.61 17.20 17.23 17.25 16.66 17.50 18.35 18.50 18.32 17.33 17.59 18.96 20.40 19.90 21.77 22.74 22.52 23.68 23.24 22.90 23.03 22.83
28.67 28.93 28.37 28.48 28.39 27.07 26.66 26.06 26.04 24.26 24.33 24.33 23.94 23.68 22.63 21.68 20.80 19.69 20.03 19.87 19.06 18.46 17.82 16.62 16.02 15.46 15.67 16.17 17.34 17.20 15.96 15.74 17.88 18.95 20.15 20.46 20.88 21.51 22.42 22.00 22.50 21.60 22.10
29.92 29.58 29.46 29.25 28.45 27.29 26.51 26.39 26.06 25.76 25.05 24.75 24.11 23.83 23.15 22.36 21.35 21.05 20.67 20.82 19.41 18.46 17.05 16.61 16.26 15.53 15.22 14.40 14.51 14.39 13.08 12.16 13.87 13.21 20.08 20.46 19.37 19.23 19.39 20.46 20.57 21.43 20.63
29.47 29.54 29.49 29.62 29.02 28.04 26.83 25.75 25.50 25.86 24.95 24.67 24.57 23.91 23.40 22.14 21.43 21.06 20.50 19.76 19.25 18.62 16.55 17.00 16.32 15.08 14.93 15.64 13.53 12.35 11.48 11.53 12.42 12.99 18.07 19.37 18.12 17.89 18.68 18.20 17.85 19.76 19.06
MSLP
1020.49 1020.53 1020.51 1020.57 1020.48 1020.23 1019.88 1019.70 1019.44 1018.85 1018.47 1018.24 1018.07 1018.28 1018.60 1018.96 1018.88 1018.50 1017.91 1017.31 1016.89 1016.65 1016.51 1016.21 1015.88 1015.72 1015.63 1015.33 1015.22 1015.24 1015.07 1014.80 1013.90 1013.19 1013.02 1012.79 1012.68 1012.75 1012.76 1013.04 1012.91 1012.75 1012.61
1020.73 1020.54 1020.28 1020.47 1020.49 1020.26 1020.12 1019.78 1019.70 1019.23 1018.72 1018.59 1018.78 1018.97 1019.05 1018.86 1018.27 1018.12 1017.78 1017.35 1016.83 1016.58 1016.34 1015.98 1015.71 1015.48 1015.32 1015.19 1015.00 1014.74 1014.50 1014.29 1013.94 1013.18 1012.86 1012.50 1012.36 1012.22 1012.16 1012.28 1012.12 1011.81 1011.75
1020.63 1020.48 1020.16 1020.21 1020.24 1020.23 1020.10 1019.99 1019.63 1019.35 1019.13 1019.16 1019.08 1019.02 1018.75 1018.47 1017.98 1017.68 1017.43 1016.93 1016.50 1016.25 1016.02 1015.74 1015.55 1015.43 1015.25 1015.09 1014.98 1014.72 1014.47 1014.16 1013.86 1013.42 1012.58 1012.35 1011.98 1011.71 1011.54 1011.58 1011.46 1011.32 1011.31
1020.49 1020.18 1020.08 1020.29 1020.36 1020.37 1020.16 1019.93 1019.50 1019.23 1019.05 1018.75 1018.45 1018.23 1018.02 1017.80 1017.54 1017.35 1017.12 1016.83 1016.54 1016.17 1016.06 1015.91 1015.72 1015.59 1015.42 1015.18 1014.86 1014.62 1014.28 1013.86 1013.50 1013.11 1012.39 1011.87 1011.70 1011.47 1011.21 1010.93 1010.61 1010.74 1010.65
1020.26 1020.11 1020.35 1020.37 1020.18 1019.94 1019.91 1019.75 1019.43 1019.16 1018.93 1018.67 1018.46 1018.27 1018.10 1017.81 1017.64 1018.03 1017.58 1017.07 1016.45 1016.05 1015.80 1015.60 1015.37 1015.26 1015.51 1015.59 1015.32 1014.58 1014.00 1013.42 1012.87 1012.35 1011.85 1011.32 1011.11 1011.02 1010.80 1010.72 1010.48 1010.54 1010.29
1020.00 1020.20 1020.36 1020.24 1020.12 1020.04 1019.97 1019.77 1019.47 1019.19 1018.88 1018.69 1018.36 1018.09 1017.91 1017.69 1018.32 1018.49 1018.24 1017.34 1016.53 1015.75 1015.15 1014.93 1014.80 1014.78 1014.53 1014.59 1014.69 1014.70 1014.62 1013.97 1013.25 1012.86 1012.43 1011.91 1011.35 1011.11 1010.99 1010.92 1010.93 1010.92 1010.48
1020.05 1020.09 1020.07 1020.00 1020.12 1020.05 1019.81 1019.57 1019.35 1019.10 1018.86 1018.59 1018.29 1018.14 1018.01 1017.85 1018.20 1018.35 1018.15 1017.36 1016.48 1015.74 1015.19 1014.78 1014.40 1014.08 1014.00 1013.73 1013.85 1013.86 1013.81 1013.78 1013.78 1013.42 1012.63 1012.08 1011.55 1011.47 1011.34 1011.07 1010.84 1010.64 1010.37
1019.88 1019.90 1019.94 1019.98 1019.98 1019.83 1019.72 1019.51 1019.27 1018.94 1018.68 1018.38 1018.22 1018.25 1018.06 1017.79 1018.15 1018.25 1017.97 1017.10 1016.11 1015.47 1014.93 1014.51 1014.06 1013.59 1013.50 1013.78 1013.54 1013.23 1012.93 1012.48 1012.24 1012.19 1011.90 1011.52 1011.34 1011.35 1011.20 1010.80 1010.44 1010.22 1010.07
1019.40 1019.69 1019.83 1019.90 1019.78 1019.65 1019.47 1019.33 1019.08 1018.81 1018.56 1018.33 1018.40 1018.25 1017.99 1017.81 1018.03 1018.12 1017.79 1016.87 1015.83 1015.24 1014.88 1014.49 1014.21 1013.82 1013.53 1013.50 1013.19 1012.70 1012.07 1011.44 1011.09 1010.94 1010.93 1010.75 1010.70 1010.81 1010.84 1010.64 1010.16 1009.80 1009.24
1018.99 1019.22 1019.46 1019.55 1019.56 1019.40 1019.30 1019.08 1018.92 1018.66 1018.47 1018.52 1018.66 1018.52 1018.19 1017.95 1017.95 1017.92 1017.54 1016.71 1016.01 1015.27 1014.60 1014.02 1013.66 1013.29 1013.00 1012.98 1012.73 1012.20 1011.52 1010.82 1010.47 1010.13 1009.82 1009.67 1009.71 1009.53 1009.67 1009.83 1009.47 1008.98 1008.60
1018.69 1018.88 1019.00 1019.13 1019.19 1019.17 1019.02 1018.82 1018.64 1018.48 1018.58 1019.01 1019.03 1018.66 1018.17 1017.92 1017.66 1017.43 1017.20 1016.80 1015.99 1015.17 1014.27 1013.49 1012.79 1012.75 1012.79 1012.68 1012.52 1012.03 1011.44 1011.09 1010.57 1010.03 1009.43 1009.02 1008.60 1008.24 1008.02 1008.04 1008.11 1008.15 1007.86
1018.41 1018.41 1018.63 1018.79 1018.90 1018.96 1018.69 1018.50 1018.34 1018.23 1018.39 1018.79 1018.61 1018.19 1017.72 1017.47 1017.10 1016.93 1016.85 1016.36 1015.76 1014.96 1013.99 1013.17 1012.70 1012.79 1012.65 1012.33 1012.03 1011.60 1011.37 1010.93 1010.12 1009.35 1008.75 1008.27 1007.91 1007.42 1007.05 1006.97 1006.99 1006.99 1006.92
1018.84 1018.51 1018.39 1018.55 1018.70 1018.62 1018.46 1018.33 1018.29 1018.30 1018.75 1018.72 1018.42 1017.99 1017.41 1017.11 1016.75 1016.84 1016.50 1015.88 1015.23 1014.57 1013.76 1013.32 1013.09 1012.84 1012.43 1011.88 1011.60 1011.37 1010.91 1010.11 1009.54 1008.91 1008.21 1007.61 1007.19 1006.80 1006.57 1006.41 1006.31 1006.20 1006.16
1018.32 1018.22 1018.17 1018.25 1018.36 1018.38 1018.36 1018.39 1018.31 1018.72 1019.01 1018.81 1018.41 1017.96 1017.57 1017.24 1017.03 1016.93 1016.26 1015.57 1014.91 1014.20 1013.84 1012.99 1013.00 1012.80 1012.24 1011.77 1011.15 1010.81 1010.43 1009.97 1009.47 1008.85 1008.16 1007.58 1007.01 1006.42 1006.01 1005.78 1005.66 1005.64 1005.70
1018.42 1018.22 1018.28 1018.49 1018.49 1018.48 1018.42 1018.49 1018.76 1019.08 1019.49 1019.28 1018.85 1018.55 1018.10 1017.73 1017.56 1017.35 1016.75 1015.99 1015.25 1014.71 1014.04 1013.34 1013.03 1012.69 1011.97 1011.43 1011.06 1010.69 1010.25 1009.93 1009.48 1008.91 1008.20 1007.56 1006.84 1006.13 1005.70 1005.51 1005.37 1005.24 1005.17
1018.82 1018.54 1018.54 1018.73 1018.68 1018.79 1018.56 1018.55 1019.17 1019.35 1019.65 1019.73 1019.61 1019.33 1018.78 1018.36 1017.92 1017.35 1016.82 1016.22 1015.65 1014.97 1014.13 1013.83 1013.50 1013.13 1012.50 1011.85 1011.30 1010.93 1010.60 1010.20 1009.74 1009.08 1008.42 1007.79 1007.04 1006.20 1005.74 1005.64 1005.52 1005.18 1004.89
1019.45 1019.28 1018.96 1019.03 1018.97 1018.96 1018.99 1018.97 1018.83 1018.73 1019.19 1019.36 1019.44 1019.34 1019.11 1018.57 1017.99 1017.46 1016.96 1016.40 1015.95 1015.30 1014.80 1014.45 1014.07 1013.64 1013.10 1012.54 1012.04 1011.59 1011.10 1010.67 1010.16 1009.45 1008.80 1008.13 1007.44 1006.69 1006.01 1005.58 1005.51 1005.26 1004.91
1019.83 1019.76 1019.40 1019.13 1019.17 1019.21 1019.26 1019.22 1019.08 1018.94 1018.64 1018.53 1018.83 1019.08 1018.98 1018.61 1018.18 1017.75 1017.22 1016.45 1016.06 1015.83 1015.55 1015.12 1014.74 1014.31 1013.78 1013.12 1012.62 1012.21 1011.60 1011.00 1010.43 1009.83 1009.21 1008.58 1007.99 1007.31 1006.62 1006.10 1005.79 1005.47 1005.07
1019.74 1019.56 1019.65 1019.50 1019.47 1019.59 1019.43 1019.23 1019.09 1018.92 1018.66 1018.50 1018.43 1018.49 1018.62 1018.44 1018.13 1017.82 1017.46 1016.93 1016.62 1016.37 1016.11 1015.70 1015.38 1014.86 1014.28 1013.73 1013.24 1012.69 1012.01 1011.36 1010.78 1010.18 1009.65 1009.10 1008.56 1007.88 1007.25 1006.81 1006.39 1006.20 1005.85
1019.76 1019.99 1019.88 1019.48 1019.38 1019.29 1019.27 1019.15 1018.95 1018.80 1018.54 1018.43 1018.37 1018.68 1018.68 1018.10 1017.85 1017.71 1017.59 1017.49 1017.18 1016.88 1016.60 1016.16 1015.81 1015.43 1014.97 1014.40 1013.76 1013.11 1012.23 1011.73 1011.25 1010.71 1010.16 1009.60 1009.04 1008.48 1007.92 1007.44 1007.06 1006.68 1006.47
1019.49 1019.47 1019.80 1019.24 1019.24 1019.25 1019.20 1019.04 1018.94 1018.78 1018.57 1018.41 1018.36 1018.88 1019.27 1018.51 1018.18 1018.00 1017.87 1017.87 1017.71 1017.43 1017.16 1016.75 1016.31 1015.90 1015.52 1015.04 1014.46 1013.78 1013.02 1012.43 1011.98 1011.46 1010.82 1010.17 1009.51 1009.04 1008.55 1008.06 1007.59 1007.26 1007.07
1019.47 1019.38 1019.21 1019.17 1019.16 1019.11 1019.02 1018.92 1018.83 1018.71 1018.50 1018.38 1018.30 1018.46 1018.96 1018.50 1018.37 1018.22 1018.13 1018.14 1018.08 1017.92 1017.64 1017.24 1016.81 1016.47 1016.14 1015.72 1015.21 1014.61 1013.87 1013.28 1012.77 1012.28 1011.58 1010.79 1010.10 1009.60 1009.13 1008.64 1008.23 1007.92 1007.63
1019.42 1019.25 1019.01 1018.94 1019.00 1019.01 1018.78 1018.67 1018.58 1018.48 1018.33 1018.25 1018.25 1018.18 1018.30 1018.37 1018.37 1018.31 1018.31 1018.30 1018.18 1018.07 1018.00 1017.67 1017.28 1016.99 1016.70 1016.22 1015.82 1015.33 1014.81 1014.32 1013.74 1013.10 1012.43 1011.41 1010.63 1010.27 1009.72 1009.29 1008.93 1008.57 1008.28
1019.30 1019.02 1018.76 1018.67 1018.70 1018.69 1018.54 1018.39 1018.30 1018.26 1018.29 1018.06 1018.02 1018.04 1018.10 1018.23 1018.25 1018.27 1018.28 1018.22 1018.14 1018.06 1018.03 1017.91 1017.71 1017.51 1017.20 1016.78 1016.27 1015.85 1015.56 1015.22 1014.49 1013.71 1012.94 1012.20 1011.57 1011.02 1010.40 1009.98 1009.52 1009.35 1008.93
1018.90 1018.72 1018.53 1018.38 1018.33 1018.28 1018.21 1018.04 1017.94 1017.87 1017.83 1017.75 1017.72 1017.76 1017.88 1018.03 1018.04 1018.07 1018.06 1018.05 1018.05 1017.94 1017.93 1017.90 1017.82 1017.59 1017.32 1017.07 1016.78 1016.42 1016.12 1015.66 1015.00 1014.56 1013.27 1012.62 1012.26 1011.80 1011.43 1010.81 1010.46 1009.93 1009.72
1018.58 1018.41 1018.24 1018.11 1017.98 1017.97 1017.88 1017.76 1017.62 1017.52 1017.50 1017.47 1017.45 1017.53 1017.65 1017.75 1017.88 1017.95 1017.94 1017.89 1017.82 1017.76 1017.84 1017.78 1017.67 1017.59 1017.36 1016.99 1016.98 1016.74 1016.39 1015.95 1015.40 1014.82 1013.89 1013.15 1012.83 1012.44 1011.96 1011.56 1011.18 1010.63 1010.37
Wind_Speed
7 8 10 9 9 9 9 10 9 8 7 6 5 6 7 6 7 8 10 9 7 7 7 9 9 9 8 8 8 8 9 10 13 12 11 12 13 13 11 12 12 12 11
10 11 9 8 9 10 9 9 9 9 7 7 9 9 8 9 10 9 9 9 9 9 9 10 11 8 10 9 8 11 10 11 11 16 14 12 15 14 13 14 12 11 11
11 11 9 9 10 9 10 9 10 9 9 9 8 8 8 11 11 9 10 11 11 11 11 11 10 10 10 9 10 11 11 10 12 12 14 12 12 12 14 14 14 14 12
10 10 11 10 9 8 9 8 9 9 10 9 10 10 10 10 10 10 11 11 12 11 10 10 10 11 12 13 11 13 13 13 13 12 13 13 12 13 13 13 13 12 13
9 11 9 7 7 8 10 11 11 11 11 11 10 9 9 9 6 10 11 12 12 13 12 12 12 12 15 15 12 14 14 13 12 12 13 12 12 12 13 12 12 12 13
10 8 6 7 9 9 9 10 11 11 11 10 10 10 10 7 7 11 12 13 15 15 14 14 13 15 15 13 15 18 17 15 15 12 11 13 16 13 11 11 11 11 13
9 7 7 8 9 9 11 11 11 11 10 11 11 10 10 11 8 13 15 13 14 14 14 14 13 12 12 13 13 14 16 18 15 15 16 16 16 14 14 14 13 12 12
10 8 7 8 8 10 11 10 11 10 11 10 9 11 11 10 8 13 16 14 13 14 14 15 15 15 13 11 13 14 14 15 15 13 17 16 16 14 15 14 15 15 13
9 8 8 7 8 9 10 10 10 10 10 10 10 12 13 12 12 15 15 13 13 15 14 14 12 14 17 16 13 14 16 15 14 18 22 23 21 20 19 11 11 11 12
9 9 8 7 8 9 9 10 9 10 10 9 11 12 13 12 14 15 15 11 12 10 12 13 14 15 17 15 13 12 15 15 14 14 13 14 20 20 23 18 13 13 12
8 7 8 7 7 8 9 9 10 10 9 7 8 10 11 9 12 14 16 11 10 10 11 10 10 8 6 10 13 12 13 13 14 13 12 10 11 12 11 12 14 12 13
10 10 8 7 6 6 9 10 10 11 9 8 8 9 9 8 13 12 17 18 16 12 12 10 7 14 14 13 12 11 14 13 9 9 8 8 9 9 10 10 12 12 12
11 10 8 6 6 7 9 10 9 9 8 8 9 9 10 10 9 14 18 18 17 12 10 12 9 11 12 10 6 11 11 6 7 7 7 7 7 8 9 9 10 12 12
11 9 8 7 6 9 7 7 7 7 6 8 9 10 10 10 9 10 11 11 15 10 11 7 6 8 10 7 6 5 5 5 6 7 7 7 7 7 6 6 7 7 8
9 8 6 5 6 7 6 6 6 5 6 8 8 9 9 10 10 15 14 11 10 10 11 5 5 6 6 6 6 6 6 7 6 6 6 7 7 6 5 4 4 5 6
7 5 4 5 5 5 6 7 7 3 3 6 9 8 9 13 16 16 18 16 15 13 5 5 5 6 7 8 8 8 7 8 7 7 7 6 7 7 6 2 4 5 5
6 5 4 3 4 5 5 6 7 2 6 2 4 10 12 14 15 16 17 14 11 11 6 6 6 7 7 8 8 8 7 8 8 7 7 7 7 7 7 4 2 3 4
4 3 4 4 4 5 6 6 5 6 7 7 4 5 10 13 12 14 15 9 5 7 6 7 7 7 7 8 8 8 8 7 7 7 7 7 7 7 7 7 6 6 3
5 4 4 3 3 4 4 5 5 6 7 6 6 6 8 10 8 9 12 6 6 6 7 7 7 7 8 8 8 8 8 8 8 8 7 7 7 7 6 6 6 5 6
4 1 3 3 4 4 4 5 5 6 6 6 5 7 8 7 6 7 7 7 7 6 7 7 7 7 8 8 8 8 8 8 8 8 8 8 7 7 6 7 6 6 5
3 3 2 4 4 4 4 4 5 5 5 5 5 5 6 6 6 5 6 6 6 7 7 7 7 7 7 8 8 8 8 8 8 8 8 8 8 6 6 6 6 6 5
4 3 3 3 4 4 4 4 5 5 5 5 5 3 3 4 4 4 5 5 5 6 6 6 6 7 7 7 8 8 8 8 9 9 9 8 7 7 7 6 6 6 6
4 4 4 3 3 4 4 4 4 4 5 4 4 4 3 3 3 3 4 4 4 5 5 6 6 6 7 7 7 7 8 8 8 9 9 9 8 8 6 6 6 7 6
5 5 5 3 3 5 4 5 4 4 4 4 4 4 3 3 3 2 2 3 4 4 4 4 5 7 7 7 7 7 7 8 8 8 10 8 8 8 6 7 6 7 6
4 4 4 4 4 4 6 5 5 4 4 4 4 3 3 3 2 2 2 2 3 4 4 4 4 6 7 8 9 10 11 12 10 11 8 8 8 8 7 6 8 6 6
4 5 4 4 4 4 5 5 5 5 4 4 4 3 3 3 2 3 2 3 3 3 4 3 4 6 7 6 9 11 11 12 11 12 8 7 7 7 7 7 9 6 7
Wind_Direction
333 326 323 328 328 330 333 334 335 326 326 317 332 345 3 340 313 277 268 281 292 312 305 295 290 284 274 274 255 253 258 262 271 278 278 279 276 270 271 272 266 259 252
334 326 327 322 328 335 338 335 333 330 325 337 349 353 332 306 298 326 303 286 285 294 292 291 293 292 294 287 281 277 278 279 279 281 280 281 274 274 271 269 268 263 261
322 321 328 327 328 333 327 317 303 312 318 329 325 309 305 311 311 291 278 289 295 300 302 299 298 295 287 286 286 285 280 275 272 271 274 274 275 277 275 267 268 267 265
320 328 327 329 323 319 325 319 325 319 309 299 305 310 318 317 311 311 313 310 305 302 298 292 293 289 286 285 283 283 277 273 269 266 268 270 267 267 267 271 266 259 260
313 321 331 331 317 320 324 322 328 327 324 326 322 323 317 312 359 336 325 311 305 299 293 290 287 298 302 285 286 282 280 274 272 269 267 270 269 267 267 275 280 283 276
320 318 314 320 327 330 324 318 320 322 327 320 321 320 319 317 38 342 329 310 301 295 295 295 295 288 275 269 268 264 271 283 283 283 278 273 275 280 278 269 259 258 263
315 297 311 324 325 325 324 324 325 323 322 320 321 325 321 313 24 336 325 307 305 296 298 297 294 290 276 280 285 270 260 260 256 266 268 265 267 267 268 270 268 259 261
306 291 311 321 313 321 321 322 320 319 319 320 324 323 317 317 359 329 323 299 302 295 293 292 289 293 295 294 285 279 272 264 255 243 249 258 261 267 268 270 267 268 267
293 288 299 303 309 315 315 318 318 320 320 324 326 324 317 322 341 327 320 312 302 303 302 299 292 284 286 291 287 282 278 276 272 257 257 264 262 258 259 273 263 257 252
298 278 286 288 297 305 314 316 318 316 315 329 331 321 325 313 330 326 321 312 306 299 296 290 276 274 290 281 279 287 289 289 295 292 284 258 248 251 246 247 253 254 252
290 274 271 277 290 305 309 314 318 319 318 331 308 311 307 324 314 318 323 315 310 308 299 298 292 325 344 309 298 287 289 309 292 283 277 271 268 261 253 236 236 237 245
298 290 274 275 291 296 308 312 317 316 328 322 313 312 318 319 321 328 322 312 306 301 303 298 328 341 317 307 297 309 305 293 277 273 271 266 263 262 258 249 242 242 239
323 291 275 276 283 295 312 318 317 330 330 320 320 324 321 329 325 341 318 324 317 310 305 321 313 319 310 294 297 297 289 289 301 292 286 284 286 290 285 269 259 251 253
289 292 277 278 315 308 323 320 320 334 328 321 321 326 329 326 338 333 328 328 324 323 333 325 340 311 293 289 305 318 319 327 318 302 303 306 294 280 279 262 251 236 235
310 293 296 292 303 321 322 338 329 351 351 328 334 328 333 327 336 329 337 332 337 336 314 332 341 339 333 356 360 353 348 344 340 328 319 318 311 310 301 304 267 254 244
308 305 333 312 328 325 333 326 139 118 7 346 346 337 333 334 335 340 343 343 354 346 337 356 351 349 348 353 1 358 354 350 346 335 334 334 334 337 338 318 299 284 270
333 339 325 293 325 336 333 331 327 348 178 214 357 340 348 341 347 350 351 348 6 357 8 3 358 354 352 353 355 353 352 353 340 344 343 346 348 340 345 350 294 278 259
314 259 309 330 328 335 336 331 329 336 328 339 19 352 355 351 352 357 356 346 9 17 6 1 357 355 353 351 355 352 343 351 355 351 356 353 355 345 352 3 6 353 338
318 328 332 334 325 324 313 327 334 328 332 338 342 355 1 346 352 7 5 7 5 6 360 357 354 350 354 352 352 349 348 355 358 354 2 358 354 347 2 5 1 9 331
324 40 303 325 328 334 330 333 339 334 332 341 352 359 349 343 4 9 13 8 4 4 355 354 356 355 353 352 349 351 355 3 2 358 1 0 359 352 358 4 11 5 12
300 301 318 302 343 338 328 330 335 334 334 335 357 32 346 336 360 10 9 9 2 357 354 352 352 355 355 353 354 355 358 0 4 359 357 356 355 360 357 0 6 5 5
308 285 279 316 325 329 331 317 324 326 331 333 348 29 306 357 8 8 11 9 5 356 353 353 354 355 358 353 352 353 353 358 0 1 351 350 360 4 358 7 6 4 4
301 286 280 295 313 311 297 304 307 318 329 329 336 345 352 4 6 13 11 5 4 360 2 355 359 355 2 354 355 352 350 352 346 350 345 349 359 358 359 7 13 6 6
291 278 275 266 287 307 307 309 302 283 296 318 321 331 339 336 341 355 355 1 359 2 1 358 352 0 355 357 1 356 1 348 338 341 340 349 356 358 360 4 3 10 358
296 271 265 274 289 308 310 301 298 297 305 309 315 316 319 303 300 306 329 340 345 349 355 347 358 352 357 360 1 360 356 352 354 344 337 355 359 358 7 13 352 12 12
291 277 281 287 279 287 310 306 301 301 298 310 312 309 308 291 294 291 312 308 326 334 346 347 354 355 351 9 6 359 353 353 353 353 341 359 2 11 355 12 4 359 13